Find Starlink 36982

NORAD ID: 68278 Int'l Des: 2026-055 Owner: SPXS Country: US Constellation: starlink operational
LEOCIRCULAR

リアルタイム位置

3D地球を読み込み中...

Starlink 36982について

説明を読み込み中...

次回通過

Passes for default location (London). Set your location on the main map for personalized predictions.

高度履歴

Loading altitude history...

軌道要素

1 68278U 26055S 26124.55136124 .00030533 00000-0 70804-3 0 9997
2 68278 53.1610 60.5107 0001807 90.5113 269.6100 15.42170420 8472
Epoch: May 4, 2026 • Age: 9 hours

現在のステータス

高度 441.3 km
速度 7.65 km/s
衛星直下点 -4.00°S, 145.28°W
打ち上げ日 Mar 19, 2026
運用期間 0.1 years
タイプ internet

技術仕様

分類 Payload
質量 575.00 kg
乾燥質量 530.00 kg
総質量 575.00 kg
長さ 0.30 m
直径 4.10 m
スパン 29.00 m
形状 Box + pan
製造者 SPXS
バスタイプ Starlink V2MO
フェーズステータス In Orbit
所有者/国 SPXS/US

Most Searched